sat.trackr.live / text

‹ back to catalog

BEIDOU-2 G8 (C01)

NORAD 44231 · 2019-027A

PAYLOAD ACTIVE UNKNOWN

§ Identity

Operator
Country
PRC
Launch date
2019-05-17
Launch site
XICLF
Launch vehicle
Mass (kg)
RCS (m²)

Purposes: comms, nav

External: N2YO · Heavens-Above · Gunter

§ Orbital elements

Epoch: 2026-09-19T21:04:50.176128Z

Period
1,436.11 min
Inclination
1.8921°
Eccentricity
0.0008963
Mean motion
1.00270663 rev/d
Perigee alt
35,749.1 km
Apogee alt
35,824.7 km
Semi-major
42,165.0 km
B*
0.0000e+0
RAAN
74.2779°
Arg perigee
278.9281°
Mean anomaly
106.3369°
Rev number
2,703

§ Raw data

BEIDOU-2 G8 (C01)1 44231U 19027A   26262.87835852 -.00000251  00000+0  00000+0 0  99942 44231   1.8921  74.2779 0008963 278.9281 106.3369  1.00270663 27031

JSON: /api/v1/satellites/44231 · /tle

For live sub-satellite position, see the globe view (requires WebGL).

§ Visibility from observer

Set your observer location to see the next 7 days of passes ≥ 10°. The values pass through the URL so the page stays shareable.

No JS? Fill the form by hand. The geolocation button needs JavaScript.